RH
93 100 100 95 100 100 100 100 100 100 100 100 100 100 100 100 100 100 98 90 94 95 98 92 90 94 97 96 98 92 85 88 85 86 83 78 77 87 85 80 76 76 78 81 78 76 71 66 62 57 53 47 44 40
85 100 100 100 100 100 100 100 100 100 100 100 100 100 100 100 100 100 100 100 99 99 90 80 87 100 98 100 100 93 93 89 79 73 71 69 66 68 80 83 89 81 66 60 60 61 60 61 57 50 48 42 37 35
84 87 98 100 100 100 100 100 100 100 100 100 100 100 100 100 100 100 100 100 100 100 100 100 100 100 100 100 95 96 98 92 88 87 87 84 79 85 84 65 61 60 62 56 57 57 68 64 46 38 34 32 32 32
87 84 87 85 92 100 100 98 95 100 99 97 97 100 100 97 100 98 100 100 98 99 98 99 99 100 98 93 90 93 90 79 68 71 78 77 68 62 57 58 62 84 75 61 51 52 43 39 36 35 33 32 28 24
80 92 98 89 77 74 86 92 96 92 89 96 98 90 86 86 90 93 98 99 95 93 83 83 87 82 71 67 66 70 68 60 56 62 64 65 71 72 71 73 88 80 59 49 40 34 34 33 30 26 24 24 23 22
46 54 75 83 96 98 96 84 77 76 74 74 78 79 77 81 86 82 86 77 69 71 65 70 77 70 71 74 80 83 76 80 84 82 78 73 74 68 62 63 58 44 41 39 33 30 27 26 25 24 22 22 21 18
49 49 51 54 68 84 90 87 90 96 90 81 83 81 85 88 83 84 85 90 96 94 82 78 85 99 96 89 89 92 89 81 78 76 76 71 65 55 50 52 42 34 30 28 27 27 26 24 21 19 17 16 16 15
37 44 52 55 51 50 54 64 77 86 88 88 90 88 89 92 93 96 91 85 84 88 94 91 91 93 96 94 92 86 75 66 61 56 53 49 44 43 38 31 26 25 24 23 23 20 18 17 16 16 16 15 15 14
30 31 32 33 38 49 55 52 49 49 52 54 60 67 68 68 66 68 68 67 66 64 59 60 63 61 58 54 50 47 43 37 35 35 34 32 32 32 29 23 20 18 18 17 16 16 16 16 15 15 14 14 13 13
26 25 23 22 22 24 26 26 28 36 45 48 48 49 51 51 50 48 49 49 51 51 50 45 42 39 36 34 32 31 30 29 26 27 25 24 22 23 18 16 16 17 17 17 16 15 15 13 13 13 13 14 14 14
25 24 23 21 21 22 22 23 22 22 22 23 24 27 28 29 32 34 34 38 38 41 42 44 40 35 28 27 26 24 21 18 18 20 19 20 24 20 19 20 20 18 16 15 14 13 14 15 15 15 14 13 12 12
23 23 23 23 22 22 22 21 21 21 21 22 22 22 23 22 22 24 24 24 24 24 23 23 23 22 21 20 19 18 18 19 19 19 20 20 19 19 19 17 16 16 17 17 17 18 17 16 14 13 13 12 12 12
23 22 23 24 24 24 24 22 21 20 19 20 19 20 21 20 21 21 21 21 20 20 20 20 20 21 22 20 19 19 18 18 17 18 18 17 18 20 21 21 20 18 18 17 16 16 15 14 13 13 12 12 12 13
24 23 23 22 21 20 20 20 20 19 19 20 20 21 22 22 21 21 21 22 22 22 22 21 20 19 18 17 16 16 17 18 21 22 20 19 18 18 17 17 17 17 17 17 16 15 14 13 13 13 13 13 13 12
24 23 22 21 20 19 19 18 18 17 17 17 17 18 19 19 19 18 18 18 17 17 17 18 20 20 20 19 20 18 16 16 16 16 16 16 16 16 17 18 19 19 19 18 17 15 15 15 14 13 13 12 11 9
23 22 22 20 19 18 18 17 16 16 16 16 16 15 16 16 17 18 19 18 18 17 17 17 17 17 18 18 17 16 16 14 13 13 14 14 15 16 18 20 21 19 16 15 13 12 11 10 10 9 8 8 7 6
24 23 21 19 17 16 16 16 16 17 18 19 19 19 18 17 17 16 16 17 17 16 16 15 15 16 15 14 15 15 14 14 14 14 15 16 17 20 20 18 14 12 11 9 8 8 8 8 7 6 6 5 5 5
23 20 19 19 22 22 21 20 20 19 19 18 17 17 16 16 15 15 14 13 13 13 13 13 13 14 11 12 13 13 14 14 14 15 17 19 20 20 18 15 12 9 8 8 8 7 6 6 6 6 5 5 4 5
22 21 26 26 24 22 22 21 19 18 17 16 16 15 14 14 13 13 13 13 14 13 13 15 15 14 14 12 12 13 14 14 14 16 18 18 19 18 14 10 8 8 8 7 6 6 6 5 5 4 4 5 4 5
23 28 27 25 24 22 20 18 17 17 17 17 16 16 15 14 14 14 15 16 15 15 16 15 14 13 12 12 12 13 14 14 16 16 16 16 16 13 10 8 8 8 7 6 6 6 5 5 6 5 5 5 5 5
28 26 25 24 21 18 17 17 19 18 18 17 16 16 16 16 17 17 17 16 17 16 15 14 12 11 11 12 12 12 13 14 15 15 15 15 14 11 9 8 7 7 6 6 6 6 8 7 7 7 6 6 5 5
29 27 25 21 19 19 20 20 19 18 18 17 17 18 19 20 21 18 17 17 17 16 15 13 12 11 11 11 11 12 12 12 13 14 14 15 12 8 8 8 7 7 6 7 7 8 9 8 8 8 7 7 6 6
28 26 22 20 20 21 21 21 19 19 19 20 22 22 22 21 20 18 18 21 20 19 17 16 14 13 12 12 12 12 12 12 12 13 14 12 9 8 8 7 7 6 6 8 8 9 9 9 8 8 8 8 7 7
27 23 21 21 21 22 21 21 20 20 22 24 23 20 20 21 22 23 23 20 19 18 17 15 13 12 13 12 11 11 11 11 12 12 10 8 8 7 7 7 7 6 6 8 8 10 10 10 9 9 9 9 8 9
24 22 21 22 22 21 21 22 23 25 25 24 21 20 21 24 25 23 20 16 14 12 12 11 11 10 10 10 10 10 10 11 10 9 7 7 6 6 7 8 9 10 9 8 8 10 10 11 11 11 10 9 9 9
20 21 20 20 21 20 22 22 25 25 22 20 19 20 24 24 19 16 12 11 10 9 9 8 8 8 8 9 9 9 9 8 7 7 8 8 6 6 7 8 10 12 14 13 12 11 11 11 11 11 12 10 9 9
21 22 22 21 20 22 23 25 23 19 18 19 21 23 20 16 13 11 9 8 8 7 7 7 7 7 7 7 7 7 7 7 7 7 7 7 7 7 6 7 9 10 11 12 12 12 13 14 13 11 10 10 10 10
20 21 22 22 23 25 26 22 18 18 21 23 22 17 13 12 10 8 8 7 6 6 6 6 6 6 6 6 6 7 7 6 7 7 7 9 10 9 8 8 9 10 11 12 11 11 12 12 12 12 11 10 10 9
22 22 25 25 25 27 23 20 19 20 20 19 15 14 12 10 8 8 8 7 7 6 6 6 6 6 6 6 6 6 7 6 5 4 5 7 8 9 10 10 10 10 10 11 12 11 10 10 10 10 11 11 10 9
24 25 26 26 27 24 18 20 21 19 15 14 13 11 11 9 8 8 7 7 7 8 6 6 6 6 6 6 6 7 8 7 7 8 8 9 9 10 12 12 12 11 10 10 10 11 10 9 9 9 9 8 8 9
26 24 26 26 22 18 20 22 20 16 12 11 10 11 11 9 8 8 7 7 7 6 6 6 6 6 7 8 8 6 4 5 7 8 10 11 11 12 13 14 13 12 10 10 9 9 10 10 9 8 8 8 8 7
25 25 25 22 20 20 23 25 21 14 10 7 8 10 11 9 8 7 7 8 7 6 6 6 6 6 7 8 8 8 8 8 9 9 9 9 10 10 12 13 14 13 11 10 10 10 10 10 9 8 7 7 7 7
26 23 17 17 19 21 24 21 16 14 10 9 8 9 9 9 9 8 9 9 7 6 6 6 6 6 7 8 9 10 10 11 11 12 12 11 10 10 10 9 9 9 8 8 9 9 9 9 8 7 6 6 6 5
Wind_Speed
9 16 21 25 29 32 29 31 32 31 34 37 39 41 42 45 49 48 50 53 55 56 59 59 56 58 60 62 65 67 69 73 76 78 79 81 82 86 89 92 94 98 102 102 106 107 105 105 105 107 110 110 112 113
13 19 22 25 29 36 35 34 37 38 39 43 45 46 48 49 50 52 55 57 59 61 62 63 63 65 67 68 70 74 76 80 82 85 87 89 91 93 95 96 98 100 100 101 103 106 109 109 111 114 116 117 115 114
24 25 27 31 33 36 44 41 42 42 45 46 47 52 53 55 57 60 61 62 62 63 65 67 68 71 74 77 81 84 86 89 92 93 95 96 97 97 97 96 98 102 104 106 110 109 114 119 119 120 118 115 111 108
31 32 34 37 39 42 44 49 51 52 55 56 58 59 62 63 64 66 67 70 72 74 76 78 79 81 84 87 89 90 89 87 90 93 96 97 98 99 100 101 103 111 114 116 115 117 118 116 115 113 112 112 112 111
38 39 41 43 43 46 50 52 56 59 59 61 63 66 68 69 70 73 74 75 77 79 77 77 80 82 86 89 87 86 90 93 92 93 95 99 103 109 108 110 113 121 120 119 115 114 113 113 114 113 111 110 109 107
36 38 44 48 51 53 54 55 56 58 61 65 68 71 72 72 72 72 75 80 79 80 82 81 84 87 88 92 94 95 97 99 103 105 108 110 114 115 115 115 117 117 115 116 115 116 115 113 111 111 108 106 103 100
43 42 42 45 50 56 61 64 65 67 68 70 71 72 74 76 78 81 82 83 86 88 89 89 89 90 97 100 103 105 107 108 111 112 113 115 116 114 112 112 117 115 114 113 111 111 111 109 105 102 100 100 100 98
47 48 50 51 53 53 55 59 65 70 73 75 77 78 80 82 84 87 89 91 93 96 97 97 97 98 101 105 108 110 109 108 108 108 107 110 112 115 114 114 111 107 105 105 103 100 98 98 98 97 95 94 92 90
56 56 55 54 56 60 62 62 62 63 65 68 72 76 79 81 81 83 85 86 88 91 92 92 94 96 96 98 100 101 103 104 104 104 105 106 104 106 108 106 99 94 93 94 95 93 92 90 89 88 87 84 82 79
59 59 59 59 58 59 60 61 64 67 70 71 72 74 76 81 82 84 84 87 89 91 94 94 95 96 96 96 96 96 95 96 95 93 95 92 91 96 95 92 90 91 91 89 87 87 85 83 81 78 77 76 75 74
58 60 60 58 56 56 56 58 59 61 61 62 64 68 71 74 77 81 80 81 83 84 86 88 90 91 91 90 89 87 86 85 83 84 86 83 86 89 88 87 86 85 84 82 80 78 77 76 75 74 73 74 76 77
58 58 57 57 57 56 54 54 54 56 55 57 59 60 61 63 65 68 70 73 74 75 76 77 79 80 81 82 81 80 79 79 78 76 77 77 79 77 77 77 77 77 76 75 74 73 73 74 76 78 80 81 82 82
62 59 55 54 53 53 54 56 57 57 57 57 56 57 59 60 62 62 65 67 67 69 70 72 73 73 75 75 73 73 72 72 70 68 68 68 67 69 69 69 70 71 73 74 76 78 79 81 82 83 83 83 83 83
60 58 56 56 56 55 56 57 56 57 56 55 54 56 58 59 60 62 63 64 64 65 66 65 66 66 67 66 67 65 63 62 61 62 62 62 64 66 69 71 73 74 75 76 78 80 82 83 83 83 83 83 83 84
63 63 61 59 58 56 55 55 54 53 53 52 51 51 52 53 54 54 55 55 56 56 56 56 57 58 59 59 60 62 60 60 61 63 64 66 67 68 68 69 71 73 76 79 80 81 82 83 84 84 84 85 85 82
65 64 62 58 55 53 51 49 48 47 47 45 45 44 44 44 45 45 46 47 50 51 54 55 58 60 62 64 64 65 64 65 63 63 63 63 64 64 65 68 72 75 78 80 81 81 81 81 81 79 76 74 74 72
64 61 57 54 51 49 46 44 43 42 40 39 40 41 42 44 46 48 50 52 54 56 58 58 60 61 63 61 63 64 63 63 63 63 63 61 61 63 68 71 73 74 75 76 75 75 73 72 72 71 70 67 65 61
59 54 50 47 45 43 42 42 42 42 44 45 47 48 49 51 52 53 54 55 58 59 60 61 61 63 62 60 61 61 61 61 61 59 58 60 62 66 69 70 70 70 68 68 67 66 64 63 63 62 60 57 53 53
54 49 44 43 43 44 46 48 49 51 52 53 54 55 56 56 57 59 60 61 62 62 61 62 62 62 63 62 60 59 60 59 57 57 58 61 63 67 67 66 64 63 63 62 59 57 57 57 56 55 52 52 51 50
47 43 43 43 45 48 50 52 54 55 56 57 59 61 61 61 61 61 62 63 64 64 63 62 62 61 59 58 57 57 55 54 55 57 60 61 65 65 65 63 61 59 58 56 52 53 52 51 51 50 48 49 48 44
43 42 43 47 50 53 54 55 57 60 61 63 63 63 63 63 62 62 63 64 64 63 62 61 60 58 57 56 55 53 51 53 54 57 61 64 65 64 61 58 56 56 54 49 48 47 47 47 45 45 44 44 43 41
44 46 49 52 54 56 59 61 63 64 66 66 65 65 64 64 64 64 63 62 61 60 60 59 59 58 57 56 54 52 54 55 57 60 64 65 64 59 55 54 51 52 48 45 45 44 41 40 39 39 38 37 36 36
46 49 53 56 58 61 64 66 67 69 68 66 66 66 65 63 61 60 59 59 60 61 61 62 61 58 57 55 55 55 56 58 59 63 63 62 58 53 50 49 49 48 44 42 40 40 37 37 37 36 35 34 34 34
49 53 56 58 61 64 68 71 73 71 69 68 67 63 60 58 60 62 65 65 64 64 63 62 60 56 54 54 54 54 56 58 60 62 58 54 50 47 45 44 44 46 43 39 35 34 36 36 36 35 34 33 32 32
53 57 59 62 66 68 71 73 74 72 70 68 64 59 58 62 66 70 69 67 63 60 59 58 57 55 54 53 54 56 57 59 58 55 52 48 47 42 39 39 40 43 41 36 32 32 33 33 33 33 33 31 30 30
57 60 63 66 69 71 74 72 69 69 67 63 60 61 66 70 71 70 67 64 62 60 58 57 57 57 57 57 58 58 56 52 50 47 46 47 45 41 33 31 31 30 34 36 36 34 33 33 31 29 30 31 30 27
61 65 68 71 74 75 73 72 72 67 63 65 69 71 73 71 67 66 65 63 61 59 58 58 56 55 54 53 52 50 49 47 45 43 41 40 41 40 35 30 27 28 29 32 32 31 30 30 32 32 30 28 26 25
65 69 73 76 77 76 74 72 66 64 68 73 75 72 70 67 65 63 62 59 57 55 54 54 53 52 50 48 47 46 45 43 40 39 37 36 38 39 37 32 29 28 30 31 30 29 27 26 28 29 29 28 26 25
71 73 77 79 76 75 72 67 68 71 74 75 73 70 68 66 63 61 61 58 56 54 51 50 51 49 47 46 44 41 41 42 42 37 31 30 30 31 31 32 32 30 28 27 28 30 27 24 23 23 23 26 26 25
75 78 78 76 75 72 68 69 74 76 74 71 69 68 65 62 60 58 58 55 53 52 51 48 46 45 45 44 41 39 37 38 37 37 37 35 32 33 34 36 36 34 31 28 26 25 26 25 23 22 23 23 20 21
79 76 74 74 71 68 71 76 79 77 71 69 65 61 60 59 57 56 55 53 52 49 49 48 46 43 41 41 41 42 40 33 32 32 32 34 33 33 33 34 35 35 33 32 29 27 25 25 25 23 21 22 22 21
78 75 73 69 68 73 76 80 79 77 73 66 62 58 57 57 55 54 52 51 50 47 44 43 42 39 37 35 36 37 37 37 36 35 35 34 32 30 28 26 28 32 32 31 30 29 29 28 27 27 26 23 21 21
75 73 68 68 72 76 79 78 75 73 70 66 61 57 55 54 54 53 51 50 50 46 43 42 39 36 34 33 34 33 31 30 30 30 33 33 32 30 28 26 25 26 26 24 24 25 26 27 27 26 25 23 22 22
Wind_Direction
263 254 241 234 224 222 223 225 221 228 225 223 231 236 236 243 245 250 253 257 257 261 263 267 266 265 268 270 270 271 272 272 271 273 273 272 273 275 276 277 278 278 279 279 280 281 280 280 280 282 283 282 283 284
263 244 246 251 244 227 225 232 236 238 240 241 244 244 246 250 252 256 259 263 267 269 269 270 270 270 272 271 271 272 272 271 272 274 274 275 276 276 277 278 277 278 281 281 280 280 281 282 283 283 285 285 284 284
270 258 250 249 243 238 233 238 242 242 244 245 246 247 251 253 255 257 260 262 263 265 266 266 266 268 270 272 273 273 273 274 275 275 276 276 277 276 276 278 277 281 283 283 283 285 285 286 285 285 285 285 285 286
270 268 261 261 254 247 247 248 246 249 250 249 247 248 251 252 254 255 258 260 262 263 265 265 267 270 271 273 273 273 273 275 278 277 276 277 278 277 279 282 283 284 284 284 284 285 285 286 286 286 287 288 289 288
279 271 269 270 266 259 256 255 252 252 252 251 253 255 256 257 258 259 259 262 265 266 268 269 269 271 274 273 274 275 274 275 278 280 280 281 284 283 284 285 285 284 284 285 286 286 287 287 288 289 289 288 289 288
295 282 272 267 264 266 266 265 264 263 262 262 261 262 263 262 264 267 266 269 270 271 271 271 272 277 277 279 281 282 282 281 281 281 281 283 283 283 284 285 285 285 286 287 288 289 289 290 289 290 289 289 289 289
302 295 286 279 271 268 266 265 263 264 264 265 266 267 269 270 270 271 271 271 273 274 274 274 275 275 276 278 279 279 279 280 282 283 284 284 284 285 285 285 284 286 287 288 289 288 288 288 288 288 288 288 289 289
303 296 291 287 283 277 272 270 268 267 267 266 266 266 267 268 269 269 270 271 272 272 273 274 275 274 274 275 276 277 278 279 280 281 282 282 283 283 284 284 286 287 288 287 287 287 287 287 288 288 289 289 289 288
307 303 297 291 285 280 277 275 273 271 269 269 269 269 269 270 270 271 272 273 274 275 275 275 276 275 275 276 277 278 279 280 281 281 282 283 285 284 283 284 288 288 287 287 287 288 288 289 289 289 290 289 289 289
310 304 300 297 294 291 287 284 280 276 274 273 273 272 272 273 274 274 274 274 275 275 277 278 278 279 280 280 280 281 282 283 283 284 284 286 287 285 285 288 289 289 289 289 289 289 290 290 290 289 288 289 289 289
311 307 306 304 300 297 294 291 289 286 284 281 278 277 278 277 277 277 277 277 277 277 278 279 280 281 282 283 284 285 285 286 287 287 287 287 285 286 288 289 289 289 290 290 290 290 291 290 290 290 290 290 289 290
312 311 309 307 305 303 300 296 294 292 289 288 287 286 285 284 282 281 281 282 281 282 283 283 284 284 284 285 287 287 288 288 288 287 287 286 286 289 288 289 290 290 291 291 291 291 291 290 290 290 290 291 291 292
315 314 311 307 303 299 297 296 296 295 294 293 292 290 289 288 287 286 286 285 285 284 285 285 286 287 287 288 288 288 288 288 290 289 288 288 288 288 288 289 289 290 291 291 291 291 290 290 290 291 291 291 291 292
317 313 309 307 307 305 303 300 298 295 293 292 291 290 290 291 289 290 290 291 291 290 289 289 289 288 288 290 290 289 289 291 291 290 289 290 289 289 289 289 289 290 291 291 290 290 290 290 291 292 292 293 294 294
318 315 314 312 309 308 306 303 302 300 298 296 296 294 293 294 293 293 293 293 293 292 292 292 292 292 292 292 292 291 293 292 290 290 290 290 290 290 291 292 292 292 292 292 292 292 292 291 291 291 292 292 293 293
318 317 315 315 314 313 311 310 310 308 308 307 305 304 303 301 300 300 300 299 299 299 298 297 295 294 294 294 294 294 294 294 294 292 290 290 291 291 291 292 294 294 294 293 292 291 290 291 291 292 292 292 291 292
318 318 318 317 317 318 318 319 317 318 318 316 315 314 312 310 308 307 306 304 302 300 298 297 296 295 294 294 293 293 293 293 293 293 294 294 294 296 297 298 297 295 293 292 293 293 292 292 292 292 293 293 293 293
320 321 320 321 323 324 324 324 323 322 321 319 317 315 313 311 309 307 306 305 304 303 302 300 299 298 297 296 295 294 294 294 294 292 293 296 299 301 300 299 297 297 298 296 294 293 295 295 294 293 292 293 293 292
321 320 321 322 323 325 325 323 321 320 317 315 314 312 310 309 308 307 306 306 306 304 304 303 303 300 299 298 298 297 295 294 293 295 299 301 302 302 301 300 301 299 297 296 297 299 297 295 296 297 297 295 293 293
319 318 319 321 322 321 319 319 319 319 319 317 316 315 313 312 310 309 308 307 306 306 305 304 303 302 301 299 296 294 292 292 295 299 300 303 305 305 304 303 301 299 297 299 302 299 299 300 299 300 299 296 295 294
316 316 318 319 320 320 321 321 320 319 319 319 318 316 314 312 311 310 309 308 309 308 308 307 306 305 303 301 299 295 293 296 299 303 305 307 308 305 305 303 301 299 300 303 301 301 301 301 302 302 301 299 297 295
315 317 318 319 320 321 322 321 321 320 320 319 318 317 316 316 314 313 313 313 312 311 310 309 307 306 305 303 301 297 297 301 305 306 307 310 306 306 304 303 302 300 303 304 301 300 300 301 301 302 303 302 301 300
314 316 318 320 322 322 322 321 322 321 320 319 319 318 317 316 315 315 316 315 314 312 310 308 307 306 305 303 301 301 302 303 304 306 308 306 304 304 303 302 301 300 302 301 300 300 302 301 302 302 303 303 301 300
314 316 318 320 321 322 322 322 322 322 321 319 318 318 317 318 318 317 316 314 312 311 309 307 307 306 304 302 302 301 302 304 305 306 305 304 302 301 301 301 301 300 302 302 301 301 303 305 305 305 303 302 301 301
316 317 319 321 322 323 323 323 322 321 319 319 319 319 319 317 317 315 313 313 312 311 309 307 306 305 304 305 304 303 304 305 305 305 304 303 302 303 303 302 301 299 301 303 304 306 305 306 305 306 305 303 304 303
316 317 318 321 321 322 323 322 320 318 318 318 318 319 318 317 316 317 316 315 315 314 312 311 310 308 307 306 306 306 306 306 305 305 305 305 304 305 305 299 293 292 299 304 307 309 309 307 306 305 304 305 306 304
316 318 320 322 322 323 322 322 321 321 320 320 320 321 319 319 319 317 317 317 316 315 314 312 311 310 308 308 308 308 307 307 306 307 307 305 304 306 311 312 306 304 304 303 305 306 306 307 307 309 309 308 305 304
318 320 322 322 323 323 321 321 320 321 322 321 320 320 322 321 319 319 318 318 318 317 315 314 313 312 311 310 309 309 308 307 308 309 308 307 307 308 312 312 310 308 306 306 307 307 308 307 305 306 306 307 308 307
319 321 322 322 323 321 321 321 320 321 322 321 323 325 323 321 321 320 320 321 320 320 318 316 315 315 315 314 314 314 312 311 311 309 305 302 299 300 305 309 312 313 312 311 311 311 312 310 307 303 303 305 308 308
321 321 321 321 321 320 319 320 321 322 322 325 325 325 323 321 321 320 320 322 322 320 318 319 320 320 319 319 317 314 312 312 312 313 313 314 315 315 316 316 316 315 315 315 316 315 314 315 314 311 308 308 306 303
319 320 320 320 319 320 322 322 322 323 324 324 326 325 322 321 322 322 323 323 323 321 321 322 323 323 323 321 317 312 315 318 314 312 311 311 312 312 311 309 308 310 313 317 318 319 317 315 315 318 316 315 313 309
319 320 320 319 319 320 322 323 324 324 324 325 325 327 324 323 323 322 324 324 321 324 325 324 324 327 326 321 317 316 317 317 317 315 313 311 311 309 308 304 301 304 310 314 316 318 318 317 316 316 319 318 313 309
318 318 318 320 320 322 323 324 324 323 323 324 325 326 325 323 323 324 325 324 322 325 326 325 326 328 327 324 320 318 317 312 310 309 308 310 313 314 313 309 307 307 308 310 310 310 310 310 312 313 315 316 315 313